Regional Weather Roundup
Issued by NWS

Home | Current Version | Previous Version | Text Only | Print | Product List | Glossary On
Versions: 1 2 3 4 5 6 7 8 9 10 11 12 13 14 15 16 17 18 19 20 21 22 23 24 25 26 27 28 29 30 31 32 33 34 35 36 37 38 39 40 41 42 43 44 45 46 47 48 49 50
847
ASUS43 KFSD 240110
RWRSD

WEATHER ROUNDUP FOR SOUTH DAKOTA
NATIONAL WEATHER SERVICE SIOUX FALLS SD
800 PM CDT TUE AUG 23 2016

NOTE: "FAIR" INDICATES FEW OR NO CLOUDS BELOW 12,000 FEET WITH NO
SIGNIFICANT WEATHER AND/OR OBSTRUCTIONS TO VISIBILITY.


SDZ001>005-009-010-012>017-240200-
NORTHWEST AND NORTH CENTRAL SOUTH DAKOTA

CITY           SKY/WX    TMP DP  RH WIND       PRES   REMARKS
BUFFALO          N/A     71  34  25 NW13      29.93R
FAITH            N/A     74  36  25 NW13      29.94R
MOBRIDGE       PTCLDY    80  39  23 NW13      29.83R
$$

SDZ012>016-024>037-041>051-057-063-072>074-240200-
SOUTHWEST AND SOUTH CENTRAL SOUTH DAKOTA

CITY           SKY/WX    TMP DP  RH WIND       PRES   REMARKS
RAPID CTY ARPT CLOUDY    74  34  23 N16       29.97S
PIERRE         CLEAR     78  44  29 N13       29.85R
CUSTER         CLEAR     69  32  25 CALM      30.11R
ELLSWORTH AFB  CLEAR     77  33  20 N14       29.98R
PHILIP         PTCLDY    73  39  29 N10       29.92R
PINE RIDGE     MOCLDY    74  43  32 NE3       29.99R
WINNER         FAIR      77  51  40 NW9       29.86R
$$

SDZ004>011-016>023-039-040-240200-
NORTHEAST SOUTH DAKOTA

CITY           SKY/WX    TMP DP  RH WIND       PRES   REMARKS
ABERDEEN       CLOUDY    78  64  61 NW16      29.76R
WATERTOWN      PTCLDY    72  68  87 S9        29.78S
BROOKINGS      MOCLDY    71  67  87 S8        29.80S
SISSETON         N/A     76  67  73 S9        29.75R
$$

SDZ017-020-022-023-036>040-048>070-240200-
SOUTHEAST SOUTH DAKOTA

CITY           SKY/WX    TMP DP  RH WIND       PRES   REMARKS
SIOUX FALLS    CLOUDY    73  70  90 S6        29.78F
HURON          CLEAR     78  70  76 S16       29.72F
CHAMBERLAIN    CLEAR     80  56  42 N12       29.82R
MITCHELL       CLEAR     77  71  82 SE12      29.76S
YANKTON        CLEAR     75  72  88 E7        29.75R
$$

ABBREVIATIONS USED IN REMARKS
   TC - TEMPERATURE IN CELSIUS
  WCI - WIND CHILL INDEX
   HX - HEAT INDEX
  VSB - VISIBILITY





USA.gov is the U.S. government's official web portal to all federal, state and local government web resources and services.